When you browse on this site, cookies collect data to enhance your experience and personalize the content and advertising you see.
Visit our Privacy Policy to learn more. By continuing to use the site, you agree to this use of cookies and data.
  • In Spain
  • List of Countries
  • For 7 days
  • Water Temperature
  • Weather Map
  • Weather Widgets
  • user-avatar
    Login

    Hourly Weather Brikama

    Today, 25 February, Tuesday

    Time Temperature Precipitation Wind Pressure Humidity
    00:00 +28°C° 0 mm 4 mps 754 mmHg 44%
    01:00 +28°C° 0 mm 3 mps 753 mmHg 41%
    02:00 +28°C° 0 mm 2 mps 753 mmHg 38%
    03:00 +27°C° 0 mm 2 mps 753 mmHg 41%
    04:00 +26°C° 0 mm 2 mps 753 mmHg 44%
    05:00 +25°C° 0 mm 2 mps 753 mmHg 47%
    06:00 +27°C° 0 mm 2 mps 753 mmHg 42%
    07:00 +28°C° 0 mm 2 mps 754 mmHg 37%
    08:00 +30°C° 0 mm 2 mps 754 mmHg 31%
    09:00 +34°C° 0 mm 4 mps 754 mmHg 28%
    10:00 +36°C° 0 mm 6 mps 754 mmHg 24%
    11:00 +40°C° 0 mm 7 mps 754 mmHg 20%
    12:00 +41°C° 0 mm 7 mps 753 mmHg 19%
    13:00 +42°C° 0 mm 6 mps 753 mmHg 17%
    14:00 +44°C° 0 mm 6 mps 752 mmHg 16%
    15:00 +42°C° 0 mm 6 mps 752 mmHg 20%
    16:00 +40°C° 0 mm 7 mps 751 mmHg 24%
    17:00 +39°C° 0 mm 7 mps 751 mmHg 28%
    18:00 +35°C° 0 mm 6 mps 752 mmHg 39%
    19:00 +30°C° 0 mm 6 mps 753 mmHg 50%
    20:00 +27°C° 0 mm 5 mps 754 mmHg 61%
    21:00 +26°C° 0 mm 4 mps 754 mmHg 65%
    22:00 +26°C° 0 mm 4 mps 754 mmHg 69%
    23:00 +25°C° 0 mm 3 mps 755 mmHg 74%

    Tomorrow, 26 February, Wednesday

    Time Temperature Precipitation Wind Pressure Humidity
    00:00 +25°C° 0 mm 2 mps 754 mmHg 72%
    01:00 +24°C° 0 mm 2 mps 754 mmHg 70%
    02:00 +24°C° 0 mm 1 mps 754 mmHg 68%
    03:00 +24°C° 0 mm 2 mps 754 mmHg 65%
    04:00 +24°C° 0 mm 2 mps 754 mmHg 62%
    05:00 +24°C° 0 mm 2 mps 754 mmHg 59%
    06:00 +26°C° 0 mm 4 mps 754 mmHg 49%
    07:00 +28°C° 0 mm 5 mps 755 mmHg 39%
    08:00 +29°C° 0 mm 6 mps 755 mmHg 29%
    09:00 +33°C° 0 mm 6 mps 755 mmHg 23%
    10:00 +36°C° 0 mm 6 mps 755 mmHg 17%
    11:00 +40°C° 0 mm 7 mps 755 mmHg 11%
    12:00 +41°C° 0 mm 7 mps 754 mmHg 11%
    13:00 +42°C° 0 mm 6 mps 753 mmHg 10%
    14:00 +44°C° 0 mm 6 mps 753 mmHg 10%
    15:00 +42°C° 0 mm 6 mps 752 mmHg 14%
    16:00 +40°C° 0 mm 5 mps 752 mmHg 17%
    17:00 +37°C° 0 mm 5 mps 752 mmHg 21%
    18:00 +34°C° 0 mm 5 mps 752 mmHg 36%
    19:00 +29°C° 0 mm 5 mps 753 mmHg 50%
    20:00 +26°C° 0 mm 5 mps 754 mmHg 65%
    21:00 +25°C° 0 mm 4 mps 754 mmHg 66%
    22:00 +25°C° 0 mm 4 mps 754 mmHg 68%
    23:00 +25°C° 0 mm 3 mps 754 mmHg 70%

    Day after tomorrow, 27 February, Thursday

    Time Temperature Precipitation Wind Pressure Humidity
    00:00 +24°C° 0 mm 3 mps 754 mmHg 70%
    01:00 +24°C° 0 mm 3 mps 754 mmHg 70%
    02:00 +24°C° 0 mm 2 mps 754 mmHg 70%
    03:00 +24°C° 0 mm 2 mps 754 mmHg 70%
    04:00 +23°C° 0 mm 1 mps 754 mmHg 69%
    05:00 +23°C° 0 mm 1 mps 754 mmHg 69%
    06:00 +25°C° 0 mm 1 mps 755 mmHg 63%
    07:00 +26°C° 0 mm 1 mps 755 mmHg 57%
    08:00 +28°C° 0 mm 1 mps 756 mmHg 51%
    09:00 +30°C° 0 mm 1 mps 756 mmHg 42%
    10:00 +33°C° 0 mm 1 mps 756 mmHg 32%
    11:00 +35°C° 0 mm 1 mps 756 mmHg 23%
    12:00 +37°C° 0 mm 2 mps 755 mmHg 21%
    13:00 +39°C° 0 mm 3 mps 754 mmHg 19%
    14:00 +41°C° 0 mm 4 mps 753 mmHg 16%
    15:00 +38°C° 0 mm 4 mps 753 mmHg 22%
    16:00 +36°C° 0 mm 5 mps 753 mmHg 27%
    17:00 +33°C° 0 mm 5 mps 753 mmHg 33%
    18:00 +30°C° 0 mm 5 mps 754 mmHg 42%
    19:00 +28°C° 0 mm 4 mps 754 mmHg 51%
    20:00 +25°C° 0 mm 4 mps 755 mmHg 61%
    21:00 +25°C° 0 mm 4 mps 755 mmHg 60%
    22:00 +25°C° 0 mm 4 mps 755 mmHg 59%
    23:00 +25°C° 0 mm 4 mps 755 mmHg 58%

    28 February, Friday

    Time Temperature Precipitation Wind Pressure Humidity
    00:00 +23°C° 0 mm 4 mps 755 mmHg 57%
    01:00 +23°C° 0 mm 4 mps 755 mmHg 56%
    02:00 +24°C° 0 mm 3 mps 755 mmHg 55%
    03:00 +24°C° 0 mm 3 mps 755 mmHg 52%
    04:00 +22°C° 0 mm 3 mps 755 mmHg 50%
    05:00 +22°C° 0 mm 3 mps 755 mmHg 47%
    06:00 +25°C° 0 mm 3 mps 755 mmHg 39%
    07:00 +26°C° 0 mm 3 mps 756 mmHg 30%
    08:00 +28°C° 0 mm 3 mps 756 mmHg 21%
    09:00 +30°C° 0 mm 3 mps 756 mmHg 19%
    10:00 +34°C° 0 mm 2 mps 756 mmHg 17%
    11:00 +37°C° 0 mm 2 mps 756 mmHg 15%
    12:00 +38°C° 0 mm 2 mps 755 mmHg 14%
    13:00 +39°C° 0 mm 3 mps 754 mmHg 12%
    14:00 +40°C° 0 mm 3 mps 754 mmHg 11%
    15:00 +38°C° 0 mm 4 mps 753 mmHg 13%
    16:00 +37°C° 0 mm 5 mps 753 mmHg 15%
    17:00 +35°C° 0 mm 6 mps 753 mmHg 17%
    18:00 +32°C° 0 mm 5 mps 754 mmHg 27%
    19:00 +28°C° 0 mm 5 mps 755 mmHg 37%
    20:00 +23°C° 0 mm 4 mps 755 mmHg 47%
    21:00 +23°C° 0 mm 4 mps 755 mmHg 50%
    22:00 +23°C° 0 mm 4 mps 756 mmHg 52%
    23:00 +23°C° 0 mm 4 mps 756 mmHg 55%

    29 February, Saturday

    Time Temperature Precipitation Wind Pressure Humidity
    00:00 +23°C° 0 mm 4 mps 756 mmHg 52%
    01:00 +23°C° 0 mm 4 mps 755 mmHg 50%
    02:00 +22°C° 0 mm 5 mps 755 mmHg 47%
    03:00 +22°C° 0 mm 5 mps 755 mmHg 46%
    04:00 +22°C° 0 mm 5 mps 755 mmHg 45%
    05:00 +22°C° 0 mm 5 mps 755 mmHg 43%
    06:00 +23°C° 0 mm 5 mps 755 mmHg 39%
    07:00 +24°C° 0 mm 6 mps 756 mmHg 34%
    08:00 +26°C° 0 mm 6 mps 756 mmHg 30%
    09:00 +29°C° 0 mm 5 mps 756 mmHg 24%
    10:00 +33°C° 0 mm 4 mps 756 mmHg 18%
    11:00 +37°C° 0 mm 4 mps 756 mmHg 12%
    12:00 +38°C° 0 mm 3 mps 755 mmHg 12%
    13:00 +39°C° 0 mm 3 mps 754 mmHg 12%
    14:00 +42°C° 0 mm 3 mps 753 mmHg 12%
    15:00 +40°C° 0 mm 4 mps 753 mmHg 14%
    16:00 +37°C° 0 mm 5 mps 753 mmHg 17%
    17:00 +36°C° 0 mm 7 mps 752 mmHg 20%
    18:00 +32°C° 0 mm 6 mps 753 mmHg 31%
    19:00 +28°C° 0 mm 5 mps 753 mmHg 42%
    20:00 +25°C° 0 mm 4 mps 754 mmHg 52%
    21:00 +25°C° 0 mm 4 mps 754 mmHg 53%
    22:00 +25°C° 0 mm 4 mps 755 mmHg 54%
    23:00 +25°C° 0 mm 4 mps 755 mmHg 55%

    1 March, Sunday

    Time Temperature Precipitation Wind Pressure Humidity
    00:00 +23°C° 0 mm 5 mps 754 mmHg 53%
    01:00 +23°C° 0 mm 5 mps 754 mmHg 51%
    02:00 +23°C° 0 mm 5 mps 754 mmHg 49%
    03:00 +23°C° 0 mm 5 mps 754 mmHg 49%
    04:00 +22°C° 0 mm 5 mps 754 mmHg 48%
    05:00 +22°C° 0 mm 5 mps 754 mmHg 47%
    06:00 +23°C° 0 mm 5 mps 754 mmHg 40%
    07:00 +26°C° 0 mm 5 mps 754 mmHg 32%
    08:00 +27°C° 0 mm 5 mps 755 mmHg 25%
    09:00 +30°C° 0 mm 5 mps 755 mmHg 20%
    10:00 +35°C° 0 mm 4 mps 755 mmHg 15%
    11:00 +40°C° 0 mm 4 mps 755 mmHg 10%
    12:00 +41°C° 0 mm 4 mps 754 mmHg 11%
    13:00 +42°C° 0 mm 4 mps 753 mmHg 11%
    14:00 +43°C° 0 mm 4 mps 752 mmHg 11%
    15:00 +41°C° 0 mm 5 mps 752 mmHg 14%
    16:00 +39°C° 0 mm 6 mps 752 mmHg 18%
    17:00 +36°C° 0 mm 7 mps 752 mmHg 21%
    18:00 +33°C° 0 mm 6 mps 752 mmHg 32%
    19:00 +28°C° 0 mm 5 mps 753 mmHg 42%
    20:00 +25°C° 0 mm 4 mps 753 mmHg 53%
    21:00 +25°C° 0 mm 4 mps 754 mmHg 53%
    22:00 +25°C° 0 mm 4 mps 754 mmHg 53%
    23:00 +25°C° 0 mm 3 mps 754 mmHg 53%
    Show more